Погода Оловянная

Погода Оловянная : погода сейчас, прогноз погоды и архив. Всё, что Вы хотите узнать о погоде Оловянная!

Хотите узнать прогноз погоды Оловянная? Тогда Вам сюда: Погода Оловянная

Поиск расширенной информации на нашем сайте:

Другие новости

Новости СМИ2

Главная страница сайта

Новости сайта

02.10.2013

Напоминаем, что на нашем новом сайте вы можете получить высокодетализированные прогнозы погоды по пунктам России, СНГ и мира (включающие важные для авиации метеовеличины, такие как направление и скорость ветра, видимость, явления погоды, количество и форма облачности, нижняя и верхняя граница облачности), а также ознакомиться с разнообразными материалами по авиационной метеорологии и подборкой полезных ссылок на эту тему.

Сайт Метеоцентр.Азия посвящён разработке технологий оптимизации авиаметеорологического обслуживания, включая проектирование и перспективное создание нескольких автоматизированных авиаметеорологических систем:
- система выпуска высокодетальных прогностических карт явлений погоды для нижнего воздушного пространства по России и ближнему зарубежью;
- система верификации прогнозов TAF (выпускаемых синоптиками официальных АМСГ РФ и ближнего зарубежья) и AUTOTAF (выпускаемых сайтом Метеоцентр.Азия) - выявление ошибок, онлайн-сопоставление с фактической погодой METAR, автоматическое внесение коррективов в прогнозы при резком отклонении фактической погоды от прогноза, подсчёт оправдываемости прогнозов по элементам и в целом;
- система обработки, анализа и отображения авиаметеорологической информации для применения провайдерами метеорологической информации.

Рекомендуем: Общение на форуме

Погода Оловянная - сегодня

Время (UTC), дата Ветер
(°,м/с) 
Видим.   Явления Облачность Т
(°С)
Тd
(°С)
f(%) Тe
(°С)
Pmin
(гПа)
dP
(гПа)
Po
(мм)
O2
(г/м3)
Тmin Tmax R s Состояние
почвы
03 14.01.17 тихо ()   20000 м    3/0 верхняя 
[Cs]
-22.9 -27.4 67 -23  1042.5  1.1  717  317           
06 14.01.17 010 (С) 20000 м    ясно 
-18.7 -24.2 62 -19  1041  717  312           
09 14.01.17 тихо ()   20000 м    ясно 
-20.3 -24.6 68 -20  1042.5  0.8  717  314           
12 14.01.17 тихо ()   20000 м    ясно 
-25.6 -28.4 77 -26  1045.3  0.9  718  321    -17.9       
15 14.01.17 тихо ()   20000 м    ясно 
-26.3 -28.9 79 -26  1045.9  0.3  718  322           
18 14.01.17 тихо ()   20000 м    ясно 
-29.1 -31.9 77 -29  1047.1  0.3  718  326           
21 14.01.17 тихо ()   20000 м    ясно 
-30.6 -33.8 73 -31  1047.3  -0.3  718  328           
00 15.01.17 тихо ()   20000 м    ясно 
-32.4 -35.9 71 -32  1047.4  -0.6  718  330  -32.4      равномерный
сухой снег
100% 
03 15.01.17 340 (С) 20000 м    3/0 верхняя 
[Cs]
-27.6 -30.7 75 -28  1045.4  -0.2  718  323  -32.8         
06 15.01.17 290 (З) 20000 м    4/0 верхняя 
[Cs]
-21.9 -26 69 -25  1042  -1.2  717  316           
09 15.01.17 260 (З) 20000 м    8/0 верхняя 
[Cs]
-23.1 -26.2 76 -26  1042.4  717  317           
12 15.01.17 270 (З) 20000 м    6/0 верхняя 
[Cs]
-25.1 -27.8 78 -28  1043.1  717  320    -21.4       
15 15.01.17 330 (СЗ) 20000 м    8/0 верхняя 
[Cs]
-29.4 -32.3 76 -30  1044.2  -0.4  716  325           
18 15.01.17 320 (СЗ) 20000 м    6/0 верхняя 
[Cs]
-29.6 -32.7 74 -30  1044.1  -0.3  716  325           
21 15.01.17 тихо ()   20000 м    8/0 верхняя 
[Cs]
-31.9 -35.2 73 -32  1044.3  -0.5  716  328           
00 16.01.17 330 (СЗ) 20000 м    4/4 2000 м средняя 
[Ac lent]
-31.5 -34.8 73 -32  1044.5  0.3  716  328  -32.6      равномерный
сухой снег
100% 
03 16.01.17 270 (З) 20000 м    3/3 2000 м средняя 
[Ac lent]
-24.9 -27.8 77 -30  1041.8  -0.2  716  319           
06 16.01.17 270 (З) 20000 м    6/0 верхняя 
[Cs]
-21.7 -25.1 74 -26  1038.8  -1.7  715  314           
09 16.01.17 330 (СЗ) 20000 м    3/3 2000 м средняя 
[Ac lent]
-21.9 -25 76 -26  1038.6  -0.2  714  315           
12 16.01.17 280 (З) 20000 м    ясно 
-25.1 -27.7 79 -31  1039.7  714  319    -21       
15 16.01.17 350 (С) н/о    н/о 
-27.1 -29.9 77 -28  1039.7  -0.6  714  321           
18 16.01.17 350 (С) н/о    н/о 
-30.3 -33.4 74 -31  1040.2  -0.6  713  325           
21 16.01.17 300 (СЗ) 20000 м    9/9 2000 м средняя 
[Ac lent]
-29.1 -32.1 75 -33  1039.2  -0.5  713  323           
00 17.01.17 320 (СЗ) 20000 м    8/8 2000 м средняя 
[Ac lent]
-25.7 -28.3 79 -31  1037.7  -0.1  713  319  -31.2      равномерный
сухой снег
100% 
03 17.01.17 290 (З) 20000 м    5/0 верхняя 
[Cs]
-24 -26.6 79 -27  1037.7  0.5  713  317           
Время (UTC), дата Ветер
(°,м/с) 
Видим.   Явления Облачность Т
(°С)
Тd
(°С)
f(%) Тe
(°С)
Pmin
(гПа)
dP
(гПа)
Po
(мм)
O2
(г/м3)
Тmin Tmax R s Состояние
почвы

Для получения пояснительной информации подведите курсор к названию столбца.

ПОГОДА Оловянная - архив

Всё, что Вы хотите узнать о погоде Оловянная - удобно и подробно!

Выберите нужную дату (начиная с 1 января 2015* года) и нажмите кнопку "Найти".
Будут отображены архивные сводки погоды по пункту Оловянная, начиная с указанной даты.


Отображать данные в формате CSV (для использования в таблицах Excel)


Внимание! Наш архив погоды предназначен исключительно для личного некоммерческого использования в познавательных целях. Если Вам необходимы официальные справки о состоянии погоды (для производственных, юридических, коммерческих и т.п. целей), обращайтесь в органы Росгидромета.

*Примечание: данная дата относится к архиву по метеостанциям СССР (Россия, СНГ, Балтия).
Архив по метеостанциям Зарубежной Европы и Азии (кроме Китая) хранится 10 дней, по другим регионам земного шара (Китай, Африка, Америка, Австралия, Океания) - 1 день.

Оловянная - район местоположения метеостанции


Название, широта, долгота, высота метеостанции:
Оловянная 50.9°ш. 115.6°д. 640 м над ур. моря [Российская Федерация]

Дополнительная информация

В oтличие oт бoльшинства пoгoдных сайтoв мы публикуем пoдрoбную метеoинфoрмацию в детальнoм прoфессиoнальнoм фoрмате.

Характеристики температуры и влажнoсти вoздуха измеряются на высoте 2 м в тени вдали oт зданий и деревьев.
Скoрoсть ветра измеряется на высoте 10 м (на урoвне рoста челoвека скoрoсть ветра ниже в 1.5-2 раза). Если метеoстанция нахoдится в гoрoде или в лесу, тo скoрoсть ветра занижена на 2-4 м/с пo сравнению с oткрытым местoм. Скoрoсть ветра над акватoриями крупных рек и oзёр, а также на вершинах хoлмoв на 2-5 м/с выше, чем в oбычных услoвиях.
Атмoсфернoе давление в разных тoчках местнoсти мoжет значительнo oтличаться oт давления на метеoстанции, в зависимoсти oт услoвий рельефа (при пoдъёме на 10 м давление пoнижается примернo на 1 мм рт.ст.).